This demonstration page uses our WeatherBlox Daily Observations layout. Learn more.

Left ArrowRight Arrow

47.50024, -111.30081

Hourly Observations for April 5, 2016

Temp ( °F °C ) Dew Point ( °F °C ) Humidity (%) Winds ( mph kmh ) Pressure ( in mb ) Visibility ( mi km ) Precip ( " mm )
12:53 am 00:53 Clear 37 2.8 24 -4.4 59 59 SW 21 33 29.90 1013 10 16 0.00 0.00
1:53 am 01:53 Clear 37 2.8 23 -5 57 57 SW 21 33 29.86 1011 10 16 0.00 0.00
2:53 am 02:53 Mostly Cloudy 39 3.9 22 -5.6 50 50 SW 23 37 29.85 1011 10 16 0.00 0.00
3:53 am 03:53 Cloudy 39 3.9 20 -6.7 46 46 SW 24 39 29.86 1011 10 16 0.00 0.00
4:53 am 04:53 Cloudy 41 5 19 -7.2 41 41 WSW 24 39 29.88 1012 10 16 0.00 0.00
5:53 am 05:53 Cloudy 41 5 22 -5.6 47 47 W 29 46 29.92 1013 10 16 0.00 0.00
6:13 am 06:13 Windy with Snow Likely 34 1.1 30 -1.1 85 85 WNW 25 41 30.03 1017 3 4 0.00 0.03
6:19 am 06:19 Windy with Snow Likely 33 0.6 30 -1.1 89 89 W 24 39 30.03 1017 2 2 0.01 0.25
6:28 am 06:28 Windy with Snow Likely 34 1 30 -1 87 87 W 25 41 30.03 1017 2 2 0.00 0.00
6:33 am 06:33 Mostly Cloudy with Light Snow 33 0.6 31 -0.6 92 92 W 23 37 30.03 1017 1 1 0.03 0.76
6:47 am 06:47 Windy with Snow Likely 34 1 30 -1 87 87 W 25 41 30.03 1017 1 2 0.05 1.27
6:53 am 06:53 Windy with Snow Likely 33 0.6 31 -0.6 92 92 WSW 23 37 29.99 1016 1 2 0.05 1.27
7:00 am 07:00 Windy with Snow Likely 34 1 30 -1 87 87 WSW 22 35 30.03 1017 5 8 0.00 0.00
7:39 am 07:39 Cloudy with Light Rain 34 1.1 31 -0.6 89 89 W 17 28 30.06 1018 10 16 0.00 0.03
7:46 am 07:46 Cloudy 36 2 30 -1 81 81 W 15 24 30.03 1017 10 16 0.00 0.00
7:53 am 07:53 Cloudy with Light Rain 36 2.2 29 -1.7 76 76 W 26 43 30.04 1017 10 16 0.00 0.03
8:53 am 08:53 Windy with Snow Likely 35 1.7 32 0 89 89 W 22 35 30.10 1019 4 6 0.02 0.51
9:05 am 09:05 Cloudy with Light Rain 36 2.2 32 0 86 86 W 20 31 30.12 1020 10 16 0.01 0.25
9:53 am 09:53 Cloudy 38 3.3 32 0 79 79 NW 9 15 30.16 1021 10 16 0.01 0.25
10:53 am 10:53 Cloudy with Light Rain 40 4.4 32 0 73 73 WNW 9 15 30.18 1022 10 16 0.00 0.03
11:53 am 11:53 Cloudy with Light Rain 40 4.4 31 -0.6 70 70 W 13 20 30.23 1024 10 16 0.01 0.25
12:53 pm 12:53 Cloudy 42 5.6 31 -0.6 65 65 Calm 30.23 1024 10 16 0.00 0.03
1:53 pm 13:53 Cloudy 44 6.7 33 0.6 65 65 VRB 5 7 30.22 1023 10 16 0.00 0.00
2:53 pm 14:53 Cloudy 46 7.8 31 -0.6 56 56 ESE 3 6 30.21 1023 10 16 0.00 0.00
3:53 pm 15:53 Mostly Cloudy 49 9.4 29 -1.7 46 46 W 6 9 30.20 1023 10 16 0.00 0.00
4:53 pm 16:53 Partly Cloudy 52 11.1 21 -6.1 30 30 W 17 28 30.17 1022 10 16 0.00 0.00
5:53 pm 17:53 Mostly Sunny 52 11 21 -6 30 30 W 25 41 30.12 1020 10 16 0.00 0.00
6:53 pm 18:53 Sunny 48 8.9 23 -5 37 37 WSW 24 39 30.21 1023 10 16 0.00 0.00
7:53 pm 19:53 Sunny 45 7.2 22 -5.6 40 40 W 22 35 30.19 1022 10 16 0.00 0.00
8:53 pm 20:53 Clear 39 3.9 24 -4.4 55 55 SW 14 22 30.24 1024 10 16 0.00 0.00
9:53 pm 21:53 Clear 38 3.3 24 -4.4 57 57 SW 15 24 30.23 1024 10 16 0.00 0.00
10:53 pm 22:53 Clear 39 3.9 24 -4.4 55 55 SSW 16 26 30.22 1024 10 16 0.00 0.00
11:53 pm 23:53 Clear 41 5 25 -3.9 53 53 SW 20 31 30.19 1022 10 16 0.00 0.00

Powered by AerisWeather